Sebastian, FL (32958)

1:22 PM EDT on September 04, 2015 (GMT -0400)
OZWORLD - *Sebastian Highlands* - | | Change Station
CLOSE
Current Station
Personal Weather Station
Location: Sebastian, FL
Elevation: 23 ft
Nearby Weather Stations

Elev 23 ft 27.80 °N, 80.48 °W | Updated 17 seconds ago

Partly Cloudy
Partly Cloudy
89.7 °F
Feels Like 108 °F
N
0.0
Wind Variable Wind from North
Gusts 1.0 mph

Today
High -- | Low -- °F
--% Chance of Precip.
Yesterday
High -- | Low -- °F
Precip. -- in
7:01 AM 7:39 PM
Waning Gibbous, 58% visible
Pressure 29.97 in
Visibility 10.0 miles
Clouds Mostly Cloudy 2900 ft
Mostly Cloudy 3700 ft
Heat Index 108 °F
Dew Point 81 °F
Humidity 75%
Rainfall 0.00 in
Snow Depth Not available.
UV 7 out of 12
Pollen 6.90 out of 12
Air Quality Not available.
Flu Activity Not available.
METAR KVRB 041653Z 03005KT 10SM BKN029 BKN037 32/24 A2997 RMK AO2 SLP148 T03170244
Pressure 29.97 in
Visibility 10.0 miles
Clouds Mostly Cloudy 2900 ft
Mostly Cloudy 3700 ft
Heat Index 108 °F
Dew Point 81 °F
Humidity 75%
Rainfall 0.00 in
Snow Depth Not available.
UV 7 out of 12
Pollen 6.90 out of 12
Air Quality Not available.
Flu Activity Not available.
METAR KVRB 041653Z 03005KT 10SM BKN029 BKN037 32/24 A2997 RMK AO2 SLP148 T03170244
Nowcast | as of 11:33 am EDT on September 4, 2015

Area of light rain will continue to weaken as it moves eastward into Lake County through early this afternoon. Additional light showers and sprinkles will be possible with mid to high level cloud deck north of Orlando. A moist airmass across the region will lead to increasing showers and storms over the area into the afternoon with the best chance for initial development along the coast from Cape Canaveral southward as the East Coast sea breeze forms. Any storms will move east to southeast around 10 to 15 mph and will produce dangerous cloud to ground lightning and gusty winds. Additional details...including graphics are available online at: http://www.Srh.NOAA.Gov/mlb/blog.Php

×

10-Day Weather Forecast

×

Almanac

Astronomy

Sep. 04, 2015 Rise Set
Actual Time
Civil Twilight
Nautical Twilight
Astronomical Twilight
Moon
Length of Visible Light
Length of Day
Tomorrow will be .
, % of the Moon is Illuminated

Today's Extremes

State Highs State Lows

Community

WunderPhotos

Upload Photos

1,852,237 photos uploaded!

WunderBlogs® & News

Nearby

Air Quality

  Air Quality AQ Index Pollutant
Not available.

Snow Depth

Station Depth Elevation

Earthquake Activity

City Distance Mag. Time & Date
Minimum magnitude displayed is 2.5.

Coastal Water Temperatures

Place Temperature

Stations

Nearby Weather Stations

Station Location Temp. Windchill Dew Point Humidity Wind Precip. Elev Updated Type